Location: Foligno
(42.9600°N, 12.7050°E)
Time: 06:41:29
(UTC+01:00)

ISS - Pass Details

Date: 19 January 2021
Orbit: 418 x 421 km, 51.6° (Epoch: 23 January)

Event Time Altitude Azimuth Distance (km) Brightness Sun altitude
Rises 19:25:51 0° 246° (WSW) 2,361 1.2 -25.4°
Reaches altitude 10° 19:27:58 10° 250° (WSW) 1,500 0.0 -25.8°
Enters shadow 19:29:47 29° 262° (W) 810 -1.7 -26.1°
